Location: Ceske Budejovice
(48.9830°N, 14.4670°E)
Time: 09:27:36
(UTC+02:00)

ISS - Pass Details

Date: 01 May 2024
Orbit: 409 x 414 km, 51.6° (Epoch: 21 May)

Event Time Altitude Azimuth Distance (km) Brightness Sun altitude
Exits shadow 04:35:55 - 276° (W) 1,637 -1.2 -10.0°
Reaches altitude 10° 04:36:19 10° 278° (W) 1,480 -1.4 -9.9°
Maximum altitude 04:39:34 52° 356° (N) 519 -3.1 -9.5°
Drops below altitude 10° 04:42:49 10° 74° (ENE) 1,478 0.3 -9.0°
Sets 04:44:56 0° 80° (E) 2,339 1.4 -8.8°
